Location: Paris
(48.8566°N, 2.3522°E)
Time: 17:32:17
(UTC+01:00)

ISS - Visible Passes

Search period start: 19 November 2018 00:00
Search period end: 29 November 2018 00:00
Orbit: 401 x 408 km, 51.6° (Epoch: 20 November)

Date Brightness Start Highest point End Pass type
(mag) Time Alt. Az. Time Alt. Az. Time Alt. Az.
24 Nov -1.4 18:33:16 10° SSE 18:34:03 11° SE 18:34:03 11° SE visible
25 Nov -2.1 19:15:07 10° SW 19:16:54 25° S 19:16:54 25° S visible
26 Nov -2.2 18:23:31 10° SSW 18:26:06 22° SE 18:26:59 20° ESE visible
26 Nov -0.7 19:59:01 10° WSW 19:59:39 15° WSW 19:59:39 15° WSW visible
27 Nov -1.5 17:32:25 10° SSE 17:34:08 14° SE 17:35:50 10° ESE visible
27 Nov -3.4 19:06:53 10° WSW 19:09:40 56° SSW 19:09:40 56° SSW visible
28 Nov -3.1 18:14:53 10° SW 18:17:58 41° SSE 18:19:37 23° E visible
28 Nov -1.0 19:51:10 10° W 19:52:16 19° W 19:52:16 19° W visible
